EW3309 Weather Reports


Display with metric or nautical units.
time (UTC)temp
F
wind
direction
speed
MPH
gust
MPH
rain 1hr
in
rain 24hr
in
rain mn
in
humidity
%
barometer
mb
20260904111512 63 355 0.0 0.0 0.00 0.00 0.00 88 1011.5
20260904110008 62 355 0.0 0.0 0.00 0.00 0.00 88 1011.3
20260904104508 62 355 0.0 0.0 0.00 0.00 0.00 89 1011.3
20260904103006 61 355 0.0 0.0 0.00 0.00 0.00 88 1011.4
20260904101515 61 355 0.0 0.0 0.00 0.00 0.00 88 1011.4
20260904100005 61 355 0.0 0.0 0.00 0.00 0.00 88 1011.3
20260904094504 61 355 0.0 0.0 0.00 0.00 0.00 88 1011.2
20260904093004 60 355 0.0 0.0 0.00 0.00 0.00 88 1011.3
20260904091504 60 355 0.0 0.0 0.00 0.00 0.00 87 1011.2
20260904084602 60 355 0.0 0.0 0.00 0.00 0.00 85 1011.3
20260904083057 60 355 0.0 0.0 0.00 0.00 0.00 84 1011.4
20260904081556 61 355 0.0 0.0 0.00 0.00 0.00 84 1011.4
20260904080115 61 355 0.0 0.0 0.00 0.00 0.00 84 1011.5
20260904074553 62 355 0.0 0.0 0.00 0.00 0.00 84 1011.7
20260904073051 62 355 0.0 0.0 0.00 0.00 0.00 84 1011.7
20260904071548 63 355 0.0 0.0 0.00 0.00 0.00 85 1011.6
20260904070054 63 355 0.0 0.0 0.00 0.00 0.00 84 1011.5
20260904064545 63 355 0.0 0.0 0.00 0.00 0.00 83 1011.7
20260904063107 63 355 0.0 0.0 0.00 0.00 0.00 83 1011.5
20260904061542 63 355 0.0 0.0 0.00 0.00 0.00 81 1011.5
20260904060048 64 355 0.0 0.0 0.00 0.00 0.00 80 1011.5
20260904054546 64 355 0.0 0.0 0.00 0.00 0.00 80 1011.4
20260904053054 64 355 0.0 0.0 0.00 0.00 0.00 80 1011.4
20260904051541 65 355 0.0 0.0 0.00 0.00 0.00 80 1011.5
20260904050039 65 355 0.0 0.0 0.00 0.00 0.00 78 1011.4
20260904044540 66 355 0.0 0.0 0.00 0.00 0.00 78 1011.3
20260904043051 66 355 0.0 0.0 0.00 0.00 0.00 77 1011.4
20260904041537 66 355 0.0 0.0 0.00 0.00 0.00 78 1011.4
20260904040037 67 355 0.0 0.0 0.00 0.00 0.00 77 1011.3
20260904034537 67 5 0.0 0.0 0.00 0.00 0.00 76 1011.1
20260904033036 68 296 0.0 0.0 0.00 0.00 0.00 76 1011.1
20260904031535 68 290 0.0 0.0 0.00 0.00 0.00 75 1010.9
20260904030051 69 289 0.0 0.0 0.00 0.00 0.00 74 1010.9
20260904024535 70 269 0.0 0.0 0.00 0.00 0.00 73 1010.8
20260904023035 70 284 0.0 0.0 0.00 0.00 0.00 71 1010.6
20260904021548 72 286 0.0 0.0 0.00 0.00 0.00 68 1010.7
20260904020032 73 269 0.0 0.0 0.00 0.00 0.00 64 1010.7
20260904014534 74 292 0.0 0.0 0.00 0.00 0.00 62 1010.7
20260904013034 75 302 0.0 0.0 0.00 0.00 0.00 60 1010.8
20260904011531 76 279 0.0 0.0 0.00 0.00 0.00 59 1010.8
20260904010030 76 284 0.0 0.0 0.00 0.00 0.00 57 1010.9
20260904004530 77 289 0.0 0.0 0.00 0.00 0.00 57 1010.8
20260904003029 77 267 0.0 0.0 0.00 0.00 0.00 56 1010.8
20260904001529 79 278 0.0 0.0 0.00 0.00 0.00 54 1010.7
20260904000028 79 286 0.0 0.0 0.00 0.00 0.00 53 1010.6
20260903234528 81 313 0.0 0.0 0.00 0.00 0.00 52 1010.6
20260903233035 82 277 0.0 0.0 0.00 0.00 0.00 51 1010.7
20260903231539 82 310 0.0 0.0 0.00 0.00 0.00 50 1010.8
20260903230026 84 262 0.0 0.0 0.00 0.00 0.00 47 1010.8
20260903224526 84 239 0.0 0.0 0.00 0.00 0.00 46 1010.8
20260903223019 83 262 0.0 0.0 0.00 0.00 0.00 46 1011.1
20260903221517 85 284 0.0 0.0 0.00 0.00 0.00 43 1011.2
20260903220016 85 302 0.0 0.0 0.00 0.00 0.00 43 1011.2
20260903214513 85 203 0.0 0.0 0.00 0.00 0.00 44 1011.3
20260903213011 85 253 0.0 0.0 0.00 0.00 0.00 46 1011.3
20260903211509 84 213 0.0 0.0 0.00 0.00 0.00 50 1011.3
20260903210007 83 256 0.0 0.0 0.00 0.00 0.00 50 1011.4
20260903204507 84 275 0.0 0.0 0.00 0.00 0.00 49 1011.4
20260903203006 84 216 0.0 0.0 0.00 0.00 0.00 50 1011.3
20260903201504 84 240 0.0 0.0 0.00 0.00 0.00 50 1011.4
20260903200003 85 284 0.0 0.0 0.00 0.00 0.00 49 1011.6
20260903194502 86 217 0.0 0.0 0.00 0.00 0.00 47 1011.7
20260903193101 86 246 0.0 0.0 0.00 0.00 0.00 43 1011.7
20260903191602 85 257 0.0 0.0 0.00 0.00 0.00 35 1011.9
20260903190053 85 218 0.0 0.0 0.00 0.00 0.00 38 1012.2
20260903184554 85 205 0.0 0.0 0.00 0.00 0.00 37 1012.4
20260903183051 84 205 0.0 0.0 0.00 0.00 0.00 40 1012.7
20260903181541 81 213 0.0 0.0 0.00 0.00 0.00 39 1012.9
20260903180041 78 210 0.0 0.0 0.00 0.00 0.00 43 1013.0
20260903174532 74 215 0.0 0.0 0.00 0.00 0.00 48 1013.2
20260903173028 71 161 0.0 0.0 0.00 0.00 0.00 65 1013.2
20260903171522 68 217 0.0 0.0 0.00 0.00 0.00 76 1013.3
20260903170029 65 167 0.0 0.0 0.00 0.00 0.00 85 1013.3
20260903164521 63 200 0.0 0.0 0.00 0.00 0.00 90 1013.4
20260903163005 61 200 0.0 0.0 0.00 0.00 0.00 93 1013.5
20260903161502 60 198 0.0 0.0 0.00 0.00 0.00 93 1013.6
20260903160002 59 224 0.0 0.0 0.00 0.00 0.00 93 1013.6
20260903154559 58 246 0.0 0.0 0.00 0.00 0.00 93 1013.6
20260903153107 57 292 0.0 0.0 0.00 0.00 0.00 93 1013.7
20260903151607 57 305 0.0 0.0 0.00 0.00 0.00 93 1013.7
20260903150101 56 317 0.0 0.0 0.00 0.00 0.00 92 1013.9
20260903144556 56 318 0.0 0.0 0.00 0.00 0.00 92 1013.8
20260903143053 56 318 0.0 0.0 0.00 0.00 0.00 92 1013.6
20260903141551 56 318 0.0 0.0 0.00 0.00 0.00 92 1013.5
20260903134550 56 318 0.0 0.0 0.00 0.00 0.00 91 1013.2
20260903133048 56 318 0.0 0.0 0.00 0.00 0.00 91 1013.0
20260903131546 56 318 0.0 0.0 0.00 0.00 0.00 91 1013.2
20260903130048 56 318 0.0 0.0 0.00 0.00 0.00 91 1013.0
20260903124544 57 318 0.0 0.0 0.00 0.00 0.00 91 1013.1
20260903123042 56 318 0.0 0.0 0.00 0.00 0.00 90 1013.0
20260903121540 57 318 0.0 0.0 0.00 0.00 0.00 90 1013.0
20260903120051 57 318 0.0 0.0 0.00 0.00 0.00 90 1012.9
20260903114538 57 318 0.0 0.0 0.00 0.00 0.00 90 1012.9
20260903113041 57 318 0.0 0.0 0.00 0.00 0.00 90 1012.9